THOR ABLESTAR DEB, 264

Orbit data source: Space-Track

THOR ABLESTAR DEB, 264 is space debris in LEO originally from a launch on Thu, 29 Jun 1961 UTC launched from the Air Force Eastern Test Range (AFETR). Debris objects in space refer to the collection of defunct objects orbiting the Earth. Examples of debris include non-operational satellites, rocket bodies, and fragments generated from explosions, collisions, or faulty payload assembly.

Loading next visibility...
Identifier
264, 1961-015CL
Orbit
LEO
Country
Flag of USUS
Related business
Manufacturer
Unknown
Mission
Spacecraft
Bus & Motor
Unknown
Mass
Unknown
Launch date (UTC)
1961-06-29 (64 years ago)
Launch vehicle
Unknown
Launch site
Air Force Eastern Test Range (AFETR)
Object type
Payload
Rocket body
Debris
Shape & HBR
Unknown shape, 0.3 m
Radar Cross Section
Medium (>0.1 m² and <1 m²)

Expand to show TLE details & history
Last TLE update: 6 hours ago

TLE from 6 hours ago
0 THOR ABLESTAR DEB
1   264U 61015CL  25298.86880183  .00002875  00000-0  98015-3 0  9991
2   264  66.5227 138.2564 0026846 205.8000 154.1764 14.37675454299950
Epoch: 2025-10-25T20:51Z
TLE epoch observation values (Epoch: 2025-10-25T20:51:04.478Z)
Latitude
0.00004°
Longitude
150.99459°
Altitude
785.566 km
Speed
7.452 km/s
True Right ascension
09h 13m 01s
True Declination
0° 00' 00"
Sunlit
Object was in daylight at epoch
Visualization orbit readout
Latitude
Unknown
Longitude
Unknown
Altitude
Unknown
Speed
Unknown
Apparent Right ascension
Unknown
Apparent Declination
Unknown
Sunlit
N/A
Visualization observer readout
Local Sidereal Time
21:42:41
Azimuth
Unknown
Elevation
Unknown
Doppler factor
Unknown
Orbital elements
Apogee altitude
783.754 km
Perigee altitude
745.404 km
Semi-major axis
7,142.716 km
Eccentricity
0.00268
Inclination
66.5227°
RAAN
138.2564°
Arg. of periapsis
205.8°
True anomaly
154.31°
Mean anomaly
154.1764°
Eccentric anomaly
154.24324°
Mean motion
3.59541 °/min
Orbital period
100.13 mins
BSTAR
0.00098015

Documentation

Showing up to 5 results
|